Wind_Speed
15 14 15 18 21 23 27 30 33 36 40 49 50 52 54 56 59 62 65 68 70 72 74 76 77 77 77 77 77 77 77 77 78 79 80 80 81 81 81 79 74 72 69 65
17 14 18 22 23 26 31 35 39 42 44 50 53 55 58 61 64 68 71 74 77 79 80 80 78 76 72 67 63 59 57 56 57 59 62 66 72 78 81 82 81 78 77 74
17 15 17 24 26 31 35 39 44 47 48 50 54 58 61 64 68 72 75 76 76 73 69 63 57 52 47 42 39 37 35 34 34 35 37 39 43 49 55 61 67 72 76 75
20 21 23 27 30 35 39 42 46 48 51 54 56 59 62 68 73 76 74 69 62 55 50 46 43 40 39 37 37 36 35 35 36 36 35 34 32 30 31 32 37 45 55 63
24 24 30 34 35 39 43 46 50 52 56 58 61 65 69 73 74 70 61 54 49 47 45 44 43 42 43 43 43 44 43 43 43 43 42 40 37 35 32 29 28 28 31 38
28 31 34 38 41 43 46 48 54 56 58 61 64 69 72 73 69 59 51 48 48 49 50 49 48 48 48 48 48 48 46 46 46 46 46 43 41 39 37 34 30 28 26 26
30 33 39 41 44 45 47 49 52 55 59 64 70 74 75 69 59 51 49 50 52 53 54 54 53 53 53 52 52 50 48 48 47 46 45 42 40 37 36 34 32 29 28 27
34 37 40 43 45 48 51 54 57 62 65 69 73 74 70 61 54 51 51 53 56 57 57 57 56 55 55 55 54 53 51 49 48 46 44 41 39 37 37 36 34 33 31 29
37 39 43 45 48 51 54 57 61 66 69 73 76 73 63 54 51 52 54 56 57 58 58 57 56 55 54 53 53 52 51 49 47 45 42 41 40 39 39 39 37 36 33 30
38 41 43 47 49 52 54 58 63 68 72 75 74 65 55 52 52 54 56 58 59 58 56 54 53 53 52 51 50 49 47 45 44 42 40 39 39 37 37 37 38 37 34 31
42 45 45 47 50 53 55 60 65 69 74 74 67 56 53 54 56 57 59 59 60 58 56 53 52 50 49 47 46 44 42 40 38 38 37 36 36 35 34 35 35 34 33 30
44 46 48 49 51 54 57 62 66 70 74 68 58 54 55 56 57 59 60 60 59 58 56 53 50 47 44 41 39 37 34 32 31 31 32 32 31 31 31 33 33 33 32 29
45 46 47 48 51 54 58 63 66 71 72 62 55 54 55 56 56 58 59 59 57 56 54 50 45 40 35 32 30 29 28 26 26 27 27 27 27 27 28 30 31 32 31 29
47 47 47 48 50 54 58 62 65 69 66 56 53 52 53 54 56 59 61 61 57 53 49 44 39 33 29 27 26 24 22 22 21 21 20 19 19 22 25 27 27 27 26 26
46 46 46 47 50 54 57 61 64 67 63 52 49 49 51 54 57 60 64 64 57 50 46 42 38 33 29 26 24 21 20 18 15 11 9 9 12 17 21 23 22 20 19 19
43 44 44 46 50 53 56 59 63 66 59 47 44 47 50 54 56 58 63 64 60 52 47 43 39 36 32 28 25 22 18 14 10 6 5 9 14 19 22 22 19 15 12 11
42 43 44 46 50 53 56 58 61 64 55 43 41 45 48 52 54 56 59 61 60 56 51 45 40 36 33 31 29 28 26 24 23 22 22 23 25 26 25 22 17 13 11 12
42 43 45 48 51 54 56 57 59 61 53 41 38 41 45 48 51 52 54 57 58 57 53 48 43 38 34 31 31 31 31 30 30 29 28 27 26 24 21 18 16 14 14 18
40 42 44 46 50 54 55 55 57 59 52 39 35 37 40 43 46 47 49 52 54 55 54 51 48 43 37 33 29 27 26 25 25 25 24 23 22 19 18 17 17 17 18 24
40 42 43 45 48 53 54 53 53 56 52 40 33 33 35 38 41 42 43 46 49 51 51 50 48 46 43 37 32 28 25 22 20 18 18 18 17 17 18 18 18 19 23 29
40 42 42 44 47 51 52 51 51 52 51 42 32 29 30 33 36 37 39 40 42 44 45 46 46 45 45 44 40 36 32 28 23 19 17 16 16 16 17 18 19 22 27 32
40 42 42 42 45 49 50 49 49 50 50 42 32 27 26 27 29 32 34 35 36 37 38 39 40 41 42 42 42 40 38 36 34 31 28 26 23 22 22 24 25 28 30 32
41 43 42 42 45 47 48 47 47 47 48 45 35 27 24 23 24 26 28 29 30 31 32 33 35 36 36 37 38 38 37 37 37 38 37 35 33 32 31 30 30 30 30 30
42 43 43 42 44 46 45 44 44 45 47 46 40 30 24 21 21 22 24 25 26 26 27 27 28 29 30 30 31 31 31 31 30 30 30 31 31 30 29 29 28 28 27 25
43 43 43 41 44 45 43 41 41 42 44 46 43 35 26 20 17 17 18 20 21 21 22 22 22 22 23 25 26 25 24 25 25 25 26 26 26 26 25 24 23 23 22 22
42 43 42 42 43 44 42 40 39 39 41 43 43 37 29 22 17 15 14 15 16 17 17 18 18 17 17 18 19 20 20 19 19 19 20 21 22 22 22 22 21 20 19 18
41 42 42 41 43 43 42 40 38 38 38 40 41 38 32 24 19 16 15 13 13 13 13 14 15 15 14 13 12 13 14 13 12 12 13 14 14 14 15 15 14 13 13 12
Wind_Direction
320 319 305 299 303 307 303 303 303 304 305 304 307 306 305 305 305 304 302 300 299 297 295 293 291 288 286 283 281 278 275 272 270 268 267 266 264 264 264 264 264 264 264 265
321 322 309 307 313 311 307 307 307 308 309 308 308 308 309 309 308 306 305 304 302 300 297 295 293 291 290 289 288 287 285 283 279 274 271 268 265 264 263 263 262 261 260 262
331 331 318 311 316 311 312 313 313 315 314 311 310 311 312 312 311 310 310 308 304 302 300 300 299 298 297 296 295 294 293 292 290 287 283 278 272 268 265 263 261 259 258 259
342 339 322 325 323 319 320 320 318 318 316 316 316 315 317 317 316 316 314 311 310 310 309 307 304 302 300 297 294 291 289 287 286 286 287 286 282 277 271 266 260 256 253 253
344 338 324 331 329 326 327 326 324 323 322 322 320 320 322 321 319 317 315 315 314 312 310 307 304 302 299 296 294 291 288 286 285 284 283 280 276 273 270 267 263 259 255 252
339 335 329 335 332 334 332 329 328 326 323 321 320 321 323 322 320 318 316 314 313 311 309 307 304 301 298 296 293 291 288 286 284 283 282 278 273 269 265 263 262 260 258 258
339 337 332 337 334 332 330 328 326 324 324 324 326 326 326 324 322 319 315 313 312 310 308 306 303 299 296 294 292 290 287 284 283 282 279 276 270 265 259 256 255 256 257 257
340 339 335 333 332 332 331 330 330 329 329 328 329 328 327 326 325 322 318 314 312 310 308 305 302 298 294 292 290 288 285 282 281 280 277 272 266 261 255 252 251 252 254 256
339 336 333 332 333 333 332 332 331 331 331 332 332 331 330 330 328 325 321 318 316 313 310 307 303 300 296 294 291 288 285 282 279 277 273 269 265 259 254 250 249 249 249 250
335 335 334 332 332 332 332 332 333 334 335 336 334 334 335 334 332 328 324 321 318 316 313 310 306 302 299 296 293 290 286 282 278 274 270 267 264 259 253 249 246 243 241 242
336 335 333 330 331 332 334 334 336 338 339 339 338 339 339 337 334 330 327 325 323 320 318 314 311 306 301 297 295 292 288 283 277 273 269 265 260 255 251 246 241 237 235 239
334 333 332 332 333 334 335 336 339 341 342 342 343 344 343 340 337 334 332 331 329 326 323 319 315 312 306 302 300 297 292 286 279 274 270 265 259 252 245 238 234 229 228 235
332 332 332 333 334 335 336 339 342 344 344 346 348 347 346 344 342 341 340 339 337 333 331 328 325 321 318 315 311 306 300 292 284 279 274 267 258 247 235 227 223 223 225 233
332 332 333 334 336 337 339 341 344 346 347 349 350 351 350 350 349 348 348 347 346 344 344 344 343 339 334 329 325 320 311 302 293 284 274 263 248 232 221 215 213 215 223 233
331 332 333 335 338 339 340 342 346 349 351 351 353 354 355 355 355 356 355 357 357 357 358 360 360 359 355 349 344 336 328 321 311 294 271 246 218 203 196 193 194 200 212 226
332 332 334 336 339 340 342 345 348 351 353 353 356 358 358 359 1 2 3 5 7 8 8 9 10 12 12 10 9 8 9 14 24 50 108 141 149 153 156 158 163 172 191 202
334 335 335 338 341 343 344 347 350 353 354 354 358 360 0 1 4 6 8 10 12 14 14 14 16 19 24 30 35 41 49 58 67 79 94 108 120 128 133 139 146 156 165 165
335 336 337 339 341 343 345 348 351 354 355 355 357 360 1 3 6 9 12 15 17 18 20 21 23 26 31 38 45 52 60 67 73 81 89 99 108 115 121 129 137 140 142 144
335 336 336 338 341 343 345 348 352 355 356 355 358 359 2 5 7 9 12 16 19 21 26 29 31 34 38 44 49 55 61 68 74 81 88 94 100 107 116 123 128 130 132 136
333 335 336 338 340 343 345 348 352 355 357 356 357 360 2 5 7 9 11 15 20 23 29 35 39 41 44 47 51 56 63 70 78 88 95 102 108 115 120 125 125 124 129 136
331 334 336 338 340 343 344 346 350 355 358 356 356 359 2 4 5 7 9 13 19 25 30 36 42 46 48 51 54 58 62 67 72 81 95 107 115 121 126 126 123 124 129 135
328 331 334 336 339 342 343 344 348 353 357 357 354 355 359 2 4 6 7 11 16 21 27 32 38 44 48 51 54 59 64 69 73 79 87 93 101 109 117 121 122 124 128 132
324 328 332 334 338 342 343 343 345 350 354 358 355 351 352 356 1 5 9 11 14 18 22 27 33 38 43 47 51 57 64 70 75 80 84 87 92 97 104 111 117 122 125 129
321 325 329 331 336 340 342 342 343 347 351 355 357 353 347 346 351 358 5 9 12 17 19 22 26 31 36 40 47 53 59 64 70 77 83 87 91 96 101 106 112 118 123 127
316 321 325 327 332 337 340 340 341 345 348 351 354 353 347 338 335 342 354 2 7 11 16 19 20 24 28 34 41 47 53 57 62 68 75 82 90 95 99 104 111 117 121 125
312 316 321 323 328 334 337 339 340 343 346 348 351 351 347 335 324 321 331 346 355 1 7 12 14 15 19 25 32 37 42 48 56 64 70 74 80 86 93 98 103 107 111 116
307 311 315 318 324 331 335 337 337 340 343 345 348 349 346 337 320 309 307 316 331 343 351 359 6 11 12 16 22 29 33 36 41 54 70 80 84 87 93 98 103 106 109 114
Height
5850 5848 5846 5843 5841 5838 5833 5827 5822 5816 5809 5798 5793 5786 5779 5772 5763 5753 5743 5733 5724 5715 5705 5695 5687 5679 5672 5666 5661 5657 5654 5652 5651 5651 5650 5651 5653 5654 5657 5660 5663 5667 5670 5675
5847 5844 5841 5838 5836 5832 5826 5820 5814 5808 5802 5791 5782 5774 5766 5757 5746 5735 5724 5713 5702 5690 5679 5668 5659 5650 5642 5637 5632 5628 5626 5624 5623 5622 5623 5623 5625 5627 5630 5635 5639 5644 5648 5653
5843 5841 5840 5834 5831 5825 5820 5813 5805 5798 5792 5782 5773 5763 5753 5742 5730 5717 5705 5691 5677 5664 5653 5643 5635 5628 5623 5619 5615 5612 5610 5608 5606 5604 5603 5603 5603 5604 5606 5609 5613 5618 5624 5630
5840 5838 5834 5833 5825 5819 5813 5805 5796 5789 5780 5771 5761 5750 5739 5725 5708 5694 5680 5666 5655 5645 5637 5630 5623 5617 5612 5608 5605 5602 5599 5597 5595 5593 5592 5591 5591 5591 5592 5593 5594 5597 5600 5605
5838 5834 5829 5823 5818 5811 5803 5795 5785 5777 5766 5756 5744 5733 5723 5706 5690 5675 5662 5651 5642 5634 5626 5619 5613 5607 5602 5597 5593 5589 5587 5584 5582 5580 5579 5579 5579 5580 5581 5582 5583 5584 5585 5587
5834 5829 5824 5819 5810 5803 5796 5787 5774 5765 5755 5744 5732 5720 5710 5693 5675 5660 5649 5639 5631 5623 5615 5608 5602 5595 5589 5584 5579 5575 5572 5569 5567 5565 5564 5564 5565 5567 5568 5569 5571 5573 5575 5577
5831 5825 5815 5812 5803 5797 5790 5782 5772 5760 5747 5733 5718 5703 5688 5674 5661 5648 5638 5629 5620 5611 5602 5594 5587 5580 5574 5567 5562 5558 5555 5552 5550 5549 5548 5548 5550 5552 5553 5556 5559 5562 5564 5566
5827 5820 5815 5806 5798 5790 5781 5770 5758 5747 5734 5720 5705 5689 5672 5658 5647 5637 5627 5617 5607 5596 5587 5578 5570 5562 5555 5549 5544 5540 5536 5534 5532 5531 5530 5531 5534 5537 5539 5542 5546 5549 5552 5555
5822 5818 5809 5799 5790 5782 5772 5761 5749 5737 5723 5707 5691 5675 5659 5647 5637 5627 5615 5604 5592 5580 5570 5560 5551 5542 5535 5529 5523 5519 5516 5515 5513 5513 5513 5514 5517 5520 5524 5528 5532 5537 5541 5544
5818 5812 5803 5793 5785 5776 5766 5754 5741 5726 5710 5694 5677 5662 5649 5639 5628 5616 5603 5590 5577 5565 5553 5543 5533 5524 5515 5509 5503 5499 5496 5495 5494 5494 5496 5497 5500 5503 5508 5513 5518 5523 5528 5533
5811 5804 5797 5790 5779 5769 5758 5745 5731 5716 5700 5683 5666 5653 5642 5631 5618 5605 5591 5577 5563 5549 5536 5526 5515 5506 5498 5491 5485 5481 5479 5477 5477 5478 5480 5482 5485 5488 5493 5498 5504 5510 5516 5522
5806 5798 5789 5781 5771 5760 5749 5737 5723 5708 5693 5676 5660 5648 5636 5623 5609 5594 5579 5565 5550 5535 5521 5509 5498 5489 5481 5475 5470 5466 5464 5463 5464 5464 5466 5468 5470 5474 5479 5486 5492 5499 5506 5512
5800 5792 5783 5775 5765 5754 5742 5730 5716 5701 5685 5670 5657 5644 5631 5616 5602 5587 5572 5556 5539 5523 5508 5495 5485 5476 5469 5464 5460 5456 5454 5453 5453 5453 5453 5455 5457 5462 5468 5475 5482 5490 5497 5503
5792 5784 5776 5768 5759 5747 5736 5724 5710 5695 5680 5665 5653 5641 5627 5613 5599 5583 5567 5549 5531 5516 5502 5489 5478 5470 5464 5459 5454 5450 5447 5445 5444 5443 5443 5445 5447 5453 5460 5468 5476 5485 5492 5497
5786 5777 5770 5762 5753 5742 5731 5719 5706 5692 5677 5664 5652 5639 5626 5612 5597 5582 5565 5547 5530 5515 5502 5490 5479 5471 5463 5457 5452 5447 5443 5440 5438 5437 5438 5439 5443 5449 5456 5465 5474 5482 5488 5494
5781 5773 5765 5757 5748 5738 5727 5715 5702 5689 5675 5662 5651 5639 5626 5612 5598 5583 5568 5551 5534 5519 5506 5495 5485 5476 5467 5460 5454 5448 5443 5439 5437 5436 5437 5440 5445 5451 5459 5468 5476 5483 5489 5492
5776 5768 5760 5752 5743 5733 5722 5710 5698 5685 5672 5660 5650 5639 5627 5614 5601 5588 5574 5558 5542 5527 5513 5502 5492 5483 5475 5467 5461 5455 5450 5447 5445 5445 5446 5449 5454 5460 5468 5475 5481 5487 5490 5494
5769 5761 5753 5745 5737 5728 5718 5707 5696 5683 5671 5659 5650 5640 5629 5617 5604 5593 5581 5567 5553 5539 5524 5512 5500 5491 5484 5477 5472 5467 5464 5461 5460 5460 5462 5464 5468 5473 5478 5483 5487 5491 5495 5498
5765 5757 5749 5741 5733 5724 5714 5704 5694 5682 5670 5659 5650 5641 5631 5620 5609 5598 5588 5577 5565 5553 5539 5525 5513 5503 5495 5489 5484 5480 5477 5475 5474 5475 5475 5477 5480 5483 5487 5491 5495 5499 5502 5506
5760 5753 5745 5738 5729 5721 5711 5701 5692 5681 5670 5658 5650 5642 5634 5624 5614 5605 5595 5585 5575 5564 5553 5541 5530 5519 5510 5503 5497 5493 5489 5487 5486 5486 5487 5488 5491 5493 5496 5499 5503 5507 5511 5516
5754 5748 5741 5734 5726 5717 5707 5698 5690 5680 5669 5658 5650 5643 5635 5627 5619 5610 5602 5593 5585 5576 5567 5557 5547 5537 5528 5520 5514 5508 5504 5501 5499 5497 5497 5498 5500 5502 5505 5508 5512 5516 5521 5527
5749 5743 5736 5730 5722 5714 5704 5695 5687 5678 5669 5659 5650 5643 5637 5630 5623 5615 5607 5599 5592 5585 5578 5570 5562 5553 5546 5539 5532 5526 5521 5517 5514 5511 5510 5510 5511 5512 5515 5518 5522 5527 5532 5537
5743 5737 5731 5725 5718 5710 5701 5692 5684 5676 5668 5659 5650 5642 5637 5631 5625 5619 5613 5606 5599 5592 5586 5580 5574 5567 5561 5555 5549 5544 5539 5535 5532 5529 5528 5527 5527 5528 5529 5532 5535 5539 5544 5549
5736 5731 5726 5720 5714 5706 5698 5690 5682 5674 5666 5657 5649 5641 5636 5631 5626 5620 5615 5610 5604 5598 5593 5588 5583 5578 5573 5568 5563 5558 5554 5551 5548 5546 5545 5544 5544 5544 5545 5547 5549 5552 5556 5559
5729 5725 5720 5714 5708 5701 5694 5687 5679 5672 5664 5655 5647 5640 5634 5630 5626 5621 5617 5612 5608 5603 5598 5594 5589 5585 5581 5578 5574 5570 5567 5563 5561 5559 5557 5557 5557 5558 5559 5560 5562 5564 5566 5569
5723 5718 5713 5708 5703 5697 5690 5682 5675 5668 5661 5654 5646 5638 5631 5627 5623 5620 5617 5613 5609 5605 5601 5597 5594 5590 5587 5584 5581 5579 5576 5574 5572 5570 5569 5568 5567 5568 5569 5570 5572 5573 5575 5576
5715 5711 5706 5701 5696 5690 5684 5677 5670 5664 5658 5651 5644 5636 5629 5623 5620 5617 5615 5612 5609 5606 5603 5599 5596 5593 5590 5587 5585 5584 5582 5580 5579 5578 5577 5576 5576 5575 5576 5577 5578 5580 5581 5583